Location: Miss�
(46.9484°N, 0.1922°W)
Time: 01:29:17
(UTC+00:00)

Cosmos 2333 Rocket - Pass Details

Date: 02 March 2021
Orbit: 837 x 864 km, 70.8° (Epoch: 12 April)

Event Time Altitude Azimuth Distance (km) Brightness Sun altitude
Rises 20:42:16 0° 216° (SW) 3,389 5.5 -29.9°
Reaches altitude 10° 20:44:43 10° 219° (SW) 2,462 4.7 -30.3°
Maximum altitude 20:50:19 63° 301° (WNW) 949 2.5 -31.2°
Enters shadow 20:50:49 60° 327° (NNW) 970 2.6 -31.2°
Exits shadow 20:56:43 - 23° (NNE) 2,757 4.9 -32.1°
Sets 20:58:31 0° 26° (NNE) 3,439 5.4 -32.4°
